OE5RBO Weather Reports


Display with metric or nautical units.
time (UTC)temp
F
wind
direction
speed
MPH
gust
MPH
rain 1hr
in
rain 24hr
in
rain mn
in
humidity
%
barometer
mb
20260831110215 76 198 5.0 9.0 0.00 0.00 0.06 69 1018.0
20260831105215 76 210 4.0 11.0 0.00 0.00 0.06 67 1018.2
20260831104215 75 198 1.0 8.0 0.00 0.00 0.06 71 1018.1
20260831103214 75 190 3.0 9.0 0.00 0.00 0.06 73 1018.2
20260831102214 76 288 2.0 7.0 0.00 0.00 0.06 70 1018.2
20260831101214 76 200 4.0 10.0 0.00 0.00 0.06 69 1018.3
20260831100213 73 203 2.0 11.0 0.00 0.00 0.06 75 1018.3
20260831094213 73 211 5.0 11.0 0.00 0.00 0.06 78 1018.4
20260831093212 74 288 2.0 9.0 0.00 0.00 0.06 77 1018.4
20260831092212 73 198 5.0 11.0 0.00 0.00 0.06 79 1018.4
20260831091211 73 201 4.0 11.0 0.00 0.00 0.06 79 1018.4
20260831090211 73 201 4.0 12.0 0.00 0.00 0.06 78 1018.5
20260831085211 72 193 3.0 11.0 0.00 0.00 0.06 80 1018.5
20260831084211 72 200 5.0 15.0 0.00 0.00 0.06 79 1018.4
20260831083210 71 198 5.0 10.0 0.00 0.00 0.06 80 1018.3
20260831082209 72 288 2.0 10.0 0.00 0.00 0.06 81 1018.2
20260831081209 72 214 4.0 9.0 0.00 0.00 0.06 83 1018.2
20260831080209 73 167 3.0 8.0 0.00 0.00 0.06 78 1018.1
20260831073208 73 221 2.0 6.0 0.00 0.00 0.06 82 1017.9
20260831072207 72 51 4.0 7.0 0.00 0.00 0.06 81 1017.7
20260831071207 70 146 3.0 7.0 0.00 0.00 0.06 82 1018.0
20260831065206 66 0 0.0 0.0 0.00 0.00 0.06 95 1018.0
20260831064206 66 0 0.0 0.0 0.00 0.00 0.06 96 1018.0
20260831063206 65 0 0.0 0.0 0.00 0.00 0.06 96 1017.9
20260831062205 64 0 0.0 0.0 0.00 0.00 0.06 97 1017.9
20260831061205 64 0 0.0 0.0 0.00 0.00 0.06 97 1018.0
20260831060205 64 0 0.0 0.0 0.00 0.00 0.06 97 1018.1
20260831055204 64 0 0.0 0.0 0.00 0.00 0.06 98 1018.0
20260831053204 64 0 0.0 0.0 0.00 0.00 0.05 98 1017.7
20260831052203 64 0 0.0 0.0 0.00 0.00 0.05 98 1017.9
20260831051203 64 0 0.0 0.0 0.00 0.00 0.05 98 1017.7
20260831050202 65 0 0.0 0.0 0.00 0.00 0.05 97 1017.0
20260831045202 65 0 0.0 0.0 0.00 0.00 0.05 97 1017.4
20260831044201 65 187 2.0 17.0 0.00 0.00 0.05 97 1017.5
20260831043201 64 190 5.0 18.0 0.00 0.00 0.05 99 1017.0
20260831042201 64 156 3.0 8.0 0.00 0.00 0.05 98 1015.0
20260831041201 64 65 2.0 5.0 0.00 0.00 0.05 99 1015.3
20260831040200 64 75 0.0 2.0 0.00 0.00 0.05 99 1015.6
20260831035200 64 58 0.0 1.0 0.00 0.00 0.05 99 1015.3
20260831034200 64 63 3.0 6.0 0.00 0.00 0.05 99 1015.1
20260831033159 64 48 2.0 4.0 0.00 0.00 0.05 98 1015.2
20260831032159 64 41 2.0 5.0 0.00 0.00 0.05 98 1015.1
20260831031158 64 56 2.0 5.0 0.00 0.00 0.05 99 1015.1
20260831030159 64 184 1.0 5.0 0.00 0.00 0.05 99 1015.4
20260831025157 64 132 1.0 2.0 0.00 0.00 0.05 99 1015.3
20260831022156 65 45 5.0 9.0 0.00 0.00 0.05 97 1015.0
20260831021156 65 39 5.0 10.0 0.00 0.00 0.05 97 1015.0
20260831020156 65 141 5.0 9.0 0.00 0.00 0.05 97 1015.2
20260831015156 64 51 5.0 10.0 0.00 0.00 0.05 98 1015.4
20260831014155 64 13 4.0 10.0 0.00 0.00 0.04 98 1015.6
20260831012154 64 41 5.0 11.0 0.00 0.00 0.03 97 1015.7
20260831011154 64 51 4.0 8.0 0.00 0.00 0.03 97 1015.8
20260831010153 64 39 4.0 6.0 0.00 0.00 0.03 98 1015.9
20260831004153 65 141 3.0 6.0 0.00 0.00 0.01 96 1016.7
20260831003152 66 159 4.0 8.0 0.00 0.00 0.01 96 1016.6
20260831002152 66 174 2.0 6.0 0.00 0.00 0.00 97 1016.9
20260831001152 66 179 2.0 5.0 0.00 0.00 0.00 97 1016.8
20260831000152 68 198 1.0 5.0 0.00 0.00 0.00 93 1016.5
20260830234151 69 146 2.0 5.0 0.00 0.00 0.00 87 1016.3
20260830233150 68 145 3.0 8.0 0.00 0.00 0.00 88 1016.3
20260830232150 68 204 5.0 12.0 0.00 0.00 0.00 89 1016.5
20260830231150 72 181 4.0 7.0 0.00 0.00 0.00 77 1015.7
20260830230149 71 124 3.0 8.0 0.00 0.00 0.00 78 1015.9
20260830225149 69 97 3.0 6.0 0.00 0.00 0.00 83 1016.2
20260830224148 67 167 1.0 3.0 0.00 0.00 0.00 90 1016.4
20260830222148 66 0 0.0 0.0 0.00 0.00 0.00 92 1016.4
20260830221147 66 0 0.0 0.0 0.00 0.00 0.00 91 1016.3
20260830220147 66 0 0.0 0.0 0.00 0.00 0.00 91 1016.4
20260830215147 67 0 0.0 0.0 0.00 0.00 0.00 90 1016.3
20260830213146 67 0 0.0 0.0 0.00 0.00 0.00 92 1016.4
20260830212146 67 0 0.0 0.0 0.00 0.00 0.00 91 1016.5
20260830211145 67 0 0.0 0.0 0.00 0.00 0.00 91 1016.5
20260830210145 67 0 0.0 0.0 0.00 0.00 0.00 90 1016.5
20260830205144 68 0 0.0 0.0 0.00 0.00 0.00 89 1016.5
20260830203144 67 0 0.0 0.0 0.00 0.00 0.00 90 1016.6
20260830201143 68 0 0.0 0.0 0.00 0.00 0.00 87 1016.5
20260830200142 68 52 0.0 2.0 0.00 0.00 0.00 85 1016.5
20260830195142 69 0 0.0 0.0 0.00 0.00 0.00 85 1016.4
20260830194142 70 0 0.0 0.0 0.00 0.00 0.00 82 1016.4
20260830193142 70 0 0.0 0.0 0.00 0.00 0.00 83 1016.4
20260830192141 70 0 0.0 0.0 0.00 0.00 0.00 82 1016.3
20260830191141 71 0 0.0 0.0 0.00 0.00 0.00 81 1016.3
20260830190140 71 0 0.0 0.0 0.00 0.00 0.00 80 1016.2
20260830185140 72 0 0.0 0.0 0.00 0.00 0.00 80 1016.3
20260830184140 73 69 0.0 2.0 0.00 0.00 0.00 77 1016.1
20260830183139 74 34 2.0 3.0 0.00 0.00 0.00 71 1015.9
20260830182139 75 38 4.0 6.0 0.00 0.00 0.00 70 1015.8
20260830181139 75 25 5.0 6.0 0.00 0.00 0.00 70 1015.7
20260830180139 76 39 5.0 6.0 0.00 0.00 0.00 69 1015.5
20260830175138 76 44 4.0 5.0 0.00 0.00 0.00 67 1015.5
20260830174138 77 28 4.0 7.0 0.00 0.00 0.00 65 1015.4
20260830171136 79 35 3.0 6.0 0.00 0.00 0.00 63 1015.4
20260830170136 80 62 4.0 5.0 0.00 0.00 0.00 62 1015.3
20260830165136 81 52 2.0 6.0 0.00 0.00 0.00 61 1015.3
20260830164135 81 30 2.0 4.0 0.00 0.00 0.00 60 1015.4
20260830163135 82 335 2.0 5.0 0.00 0.00 0.00 57 1015.4
20260830161134 82 353 3.0 6.0 0.00 0.00 0.00 55 1015.5
20260830155134 83 288 2.0 6.0 0.00 0.00 0.00 54 1015.6
20260830154133 83 238 0.0 2.0 0.00 0.00 0.00 53 1015.6
20260830153133 83 323 4.0 8.0 0.00 0.00 0.00 53 1015.5
20260830152132 86 343 3.0 6.0 0.00 0.00 0.00 51 1015.6
20260830151132 87 160 1.0 4.0 0.00 0.00 0.00 48 1015.6
20260830150131 88 1 1.0 5.0 0.00 0.00 0.00 45 1015.6
20260830145131 88 1 0.0 3.0 0.00 0.00 0.00 45 1015.6
20260830144131 87 8 1.0 3.0 0.00 0.00 0.00 46 1015.7
20260830143130 88 70 1.0 3.0 0.00 0.00 0.00 45 1015.7
20260830142130 88 24 2.0 5.0 0.00 0.00 0.00 46 1015.6
20260830140130 87 184 1.0 5.0 0.00 0.00 0.00 47 1015.9
20260830134129 84 226 4.0 9.0 0.00 0.00 0.00 49 1016.2
20260830132128 84 221 3.0 6.0 0.00 0.00 0.00 50 1016.3
20260830131127 85 207 3.0 7.0 0.00 0.00 0.00 48 1016.4
20260830130127 85 228 2.0 4.0 0.00 0.00 0.00 49 1016.5
20260830125127 85 204 2.0 7.0 0.00 0.00 0.00 50 1016.5
20260830124126 83 218 2.0 6.0 0.00 0.00 0.00 55 1016.6
20260830123126 82 229 4.0 10.0 0.00 0.00 0.00 53 1016.7
20260830122126 82 222 2.0 8.0 0.00 0.00 0.00 55 1016.8
20260830115125 81 288 3.0 9.0 0.00 0.00 0.00 57 1017.0
20260830114124 80 204 4.0 9.0 0.00 0.00 0.00 55 1017.2
20260830113124 81 226 3.0 8.0 0.00 0.00 0.00 56 1017.3